GFSNGP_500_temp_096.txt.gz
Temp
-14 -14 -13 -13 -13 -12 -12 -12 -11 -10 -9 -9 -9 -9 -8 -7 -7 -7 -8 -7 -8 -7 -7 -7 -6 -7 -7 -6 -6 -6 -7 -6 -6 -6 -8 -6 -7 -7 -7 -6 -7 -7 -7 -7
-14 -14 -14 -14 -13 -13 -12 -12 -12 -11 -10 -10 -9 -9 -9 -9 -9 -8 -8 -8 -8 -8 -8 -7 -7 -6 -7 -7 -6 -7 -6 -6 -6 -6 -7 -7 -7 -7 -7 -7 -7 -7 -7 -7
-14 -14 -14 -14 -14 -13 -13 -12 -11 -11 -11 -11 -10 -9 -9 -10 -9 -9 -8 -8 -9 -8 -8 -8 -8 -8 -8 -7 -7 -8 -7 -6 -6 -6 -6 -7 -7 -8 -7 -7 -7 -7 -7 -7
-14 -15 -14 -14 -14 -13 -13 -12 -12 -12 -11 -12 -11 -10 -9 -9 -10 -10 -9 -9 -8 -9 -8 -8 -8 -8 -7 -7 -7 -7 -6 -6 -6 -7 -7 -7 -7 -7 -7 -7 -7 -7 -8 -8
-14 -14 -14 -14 -14 -14 -13 -13 -13 -12 -11 -11 -11 -11 -10 -9 -9 -10 -10 -10 -9 -9 -9 -9 -8 -8 -8 -8 -8 -7 -7 -8 -7 -7 -8 -8 -7 -7 -6 -7 -7 -8 -7 -7
-15 -15 -14 -14 -14 -13 -13 -13 -13 -12 -11 -11 -12 -11 -11 -11 -11 -10 -10 -10 -10 -9 -9 -9 -9 -9 -9 -9 -9 -8 -8 -8 -8 -8 -7 -7 -7 -7 -7 -7 -7 -7 -7 -7
-16 -15 -15 -14 -14 -14 -14 -13 -13 -13 -12 -12 -12 -12 -11 -11 -12 -11 -11 -11 -11 -10 -10 -9 -9 -9 -9 -9 -9 -9 -9 -8 -8 -8 -8 -8 -8 -7 -7 -7 -7 -8 -7 -7
-16 -15 -15 -14 -14 -14 -13 -13 -13 -13 -12 -12 -12 -12 -12 -12 -12 -12 -12 -11 -11 -10 -10 -10 -10 -10 -10 -10 -9 -9 -9 -9 -9 -9 -9 -9 -8 -8 -8 -8 -8 -8 -8 -7
-16 -16 -15 -14 -14 -14 -14 -12 -13 -13 -13 -12 -12 -12 -12 -12 -12 -12 -12 -12 -11 -11 -11 -11 -10 -10 -10 -10 -10 -10 -9 -9 -9 -9 -9 -9 -9 -9 -9 -8 -8 -8 -7 -8
-17 -16 -16 -16 -14 -15 -14 -13 -14 -14 -14 -13 -13 -13 -12 -12 -12 -12 -12 -12 -11 -11 -12 -11 -11 -11 -11 -11 -10 -10 -10 -10 -10 -10 -10 -10 -9 -9 -9 -9 -9 -9 -8 -8
-17 -16 -16 -16 -16 -16 -15 -14 -14 -14 -14 -13 -13 -12 -12 -12 -13 -12 -12 -11 -11 -12 -12 -12 -12 -12 -12 -12 -12 -12 -11 -11 -10 -10 -10 -10 -10 -10 -10 -9 -9 -9 -9 -9
-17 -16 -17 -16 -16 -15 -15 -15 -15 -14 -14 -14 -14 -13 -13 -13 -13 -13 -13 -13 -13 -13 -13 -13 -13 -13 -13 -12 -12 -12 -12 -12 -11 -11 -11 -11 -11 -11 -10 -10 -10 -9 -9 -9
-17 -17 -17 -16 -16 -16 -16 -15 -15 -15 -15 -15 -14 -14 -14 -14 -14 -14 -14 -14 -13 -13 -14 -13 -12 -12 -12 -12 -12 -12 -12 -12 -13 -12 -12 -11 -11 -11 -11 -11 -10 -10 -10 -10
-17 -17 -17 -17 -17 -17 -16 -16 -16 -16 -16 -16 -15 -15 -15 -15 -15 -15 -15 -14 -14 -14 -14 -13 -13 -13 -13 -13 -13 -13 -13 -13 -12 -13 -12 -12 -12 -12 -11 -11 -11 -11 -11 -11
-17 -17 -17 -17 -18 -18 -18 -17 -17 -17 -16 -16 -16 -16 -16 -16 -16 -16 -16 -15 -15 -15 -15 -14 -14 -14 -14 -14 -14 -14 -14 -14 -14 -14 -13 -13 -13 -13 -13 -12 -12 -12 -12 -12
-17 -17 -17 -17 -17 -18 -18 -18 -18 -18 -18 -18 -17 -17 -17 -16 -16 -16 -16 -16 -16 -16 -15 -15 -15 -15 -15 -15 -15 -15 -14 -14 -15 -14 -14 -14 -14 -14 -14 -14 -14 -14 -13 -13
-18 -18 -18 -18 -18 -18 -18 -18 -18 -18 -18 -18 -18 -18 -18 -17 -17 -17 -17 -17 -17 -17 -17 -17 -16 -16 -16 -16 -15 -15 -15 -15 -15 -15 -15 -15 -15 -15 -15 -15 -14 -14 -14 -14
-18 -18 -18 -18 -18 -19 -19 -19 -19 -19 -19 -19 -19 -19 -19 -19 -18 -18 -18 -17 -17 -17 -17 -17 -17 -17 -17 -17 -16 -16 -16 -16 -16 -16 -16 -16 -16 -16 -16 -16 -16 -15 -15 -15
-18 -18 -18 -18 -19 -19 -19 -19 -19 -19 -19 -19 -19 -19 -19 -19 -19 -19 -19 -19 -19 -18 -18 -18 -18 -18 -18 -17 -17 -17 -17 -17 -17 -17 -17 -17 -17 -17 -17 -17 -17 -16 -16 -16
-18 -18 -18 -18 -18 -18 -18 -19 -19 -19 -19 -19 -19 -19 -19 -19 -19 -19 -20 -20 -20 -19 -20 -19 -19 -19 -19 -18 -18 -18 -17 -17 -17 -17 -17 -17 -17 -17 -17 -17 -17 -17 -17 -17
-18 -18 -18 -18 -18 -19 -19 -19 -19 -19 -19 -19 -19 -20 -20 -20 -20 -20 -20 -20 -20 -20 -21 -20 -20 -20 -20 -19 -19 -19 -19 -19 -19 -18 -18 -18 -18 -18 -18 -18 -18 -18 -18 -18
-18 -18 -18 -18 -18 -19 -19 -19 -19 -19 -20 -20 -20 -20 -20 -20 -20 -20 -20 -20 -21 -21 -21 -21 -21 -21 -21 -21 -20 -21 -20 -20 -20 -19 -19 -19 -19 -19 -19 -19 -19 -19 -19 -19
-18 -18 -18 -18 -18 -19 -19 -19 -20 -20 -20 -20 -20 -20 -20 -20 -20 -21 -21 -21 -21 -21 -21 -21 -21 -22 -21 -21 -20 -21 -21 -21 -21 -20 -20 -20 -20 -20 -20 -20 -20 -20 -20 -20
-18 -18 -18 -19 -19 -19 -20 -20 -20 -20 -20 -20 -20 -20 -20 -21 -23 -23 -23 -23 -23 -23 -23 -23 -23 -22 -21 -21 -21 -21 -21 -21 -21 -21 -21 -21 -21 -21 -21 -21 -21 -21 -21 -21
-17 -18 -19 -19 -19 -19 -20 -20 -20 -20 -20 -20 -21 -21 -22 -22 -23 -24 -24 -24 -24 -23 -23 -23 -23 -23 -23 -22 -22 -21 -22 -22 -22 -22 -22 -22 -22 -22 -22 -21 -21 -21 -21 -21
-17 -17 -19 -19 -20 -20 -20 -20 -20 -20 -20 -21 -21 -21 -22 -22 -22 -23 -24 -24 -23 -23 -23 -23 -24 -24 -23 -23 -22 -22 -22 -22 -22 -21 -22 -22 -22 -22 -21 -21 -22 -21 -21 -21
-17 -17 -17 -19 -19 -20 -20 -20 -20 -21 -20 -21 -21 -21 -22 -22 -23 -23 -23 -24 -24 -24 -24 -24 -24 -24 -24 -24 -23 -22 -22 -22 -22 -21 -22 -22 -23 -22 -22 -22 -22 -22 -22 -22

GFSNGP_500_temp_102.txt.gz
Temp
-15 -14 -14 -14 -14 -11 -11 -10 -12 -12 -11 -10 -8 -9 -9 -9 -9 -9 -9 -9 -8 -8 -8 -8 -8 -8 -7 -7 -7 -6 -6 -6 -6 -6 -6 -6 -6 -6 -6 -6 -6 -6 -6 -6
-15 -15 -14 -14 -13 -12 -11 -11 -11 -11 -12 -11 -9 -9 -9 -9 -9 -9 -9 -9 -8 -8 -8 -8 -8 -8 -7 -7 -6 -6 -7 -6 -6 -6 -5 -6 -6 -6 -6 -6 -6 -5 -6 -6
-16 -16 -15 -14 -14 -13 -12 -11 -11 -11 -12 -9 -9 -9 -9 -9 -9 -9 -9 -9 -9 -8 -8 -9 -8 -8 -8 -7 -7 -6 -6 -7 -6 -6 -6 -6 -6 -6 -6 -6 -6 -6 -6 -7
-17 -16 -15 -15 -15 -13 -13 -12 -12 -12 -11 -10 -10 -10 -9 -10 -10 -10 -10 -9 -9 -8 -8 -8 -8 -8 -8 -8 -7 -7 -7 -7 -7 -7 -7 -7 -6 -7 -7 -6 -6 -7 -8 -8
-16 -16 -16 -15 -15 -14 -14 -14 -13 -12 -12 -11 -11 -10 -10 -10 -10 -10 -10 -10 -9 -9 -9 -9 -9 -8 -8 -8 -8 -7 -8 -8 -8 -7 -7 -8 -7 -7 -7 -7 -7 -7 -7 -8
-16 -15 -16 -15 -14 -14 -14 -14 -14 -13 -12 -12 -12 -11 -11 -11 -10 -10 -10 -10 -10 -10 -10 -10 -9 -9 -8 -8 -8 -8 -8 -8 -8 -8 -8 -7 -6 -6 -8 -7 -7 -8 -7 -7
-16 -16 -16 -15 -15 -15 -15 -15 -14 -14 -13 -12 -12 -11 -11 -11 -11 -10 -10 -10 -10 -10 -10 -10 -10 -9 -9 -9 -8 -8 -9 -9 -8 -8 -8 -8 -7 -7 -7 -7 -8 -9 -7 -7
-16 -16 -16 -16 -15 -15 -15 -14 -14 -14 -13 -13 -12 -12 -12 -12 -11 -11 -11 -11 -10 -10 -10 -10 -10 -9 -9 -9 -9 -9 -9 -9 -9 -9 -9 -8 -8 -8 -8 -8 -8 -7 -8 -7
-16 -16 -16 -16 -15 -15 -15 -15 -14 -14 -14 -14 -13 -12 -12 -12 -12 -11 -11 -11 -11 -10 -10 -10 -10 -10 -10 -10 -10 -10 -9 -9 -9 -9 -9 -9 -9 -8 -8 -8 -8 -8 -8 -8
-16 -17 -17 -17 -16 -15 -15 -15 -14 -14 -14 -14 -13 -13 -13 -12 -12 -12 -12 -12 -11 -11 -11 -11 -11 -10 -10 -10 -10 -10 -10 -10 -9 -9 -9 -9 -9 -10 -9 -9 -9 -8 -8 -8
-17 -17 -17 -16 -16 -16 -16 -15 -15 -14 -14 -14 -14 -14 -13 -13 -13 -13 -12 -12 -12 -12 -11 -11 -11 -11 -11 -11 -11 -10 -10 -10 -10 -10 -10 -9 -9 -10 -10 -10 -10 -10 -9 -9
-17 -17 -17 -16 -16 -16 -16 -16 -15 -15 -14 -14 -14 -13 -12 -13 -13 -12 -12 -12 -12 -12 -12 -12 -11 -11 -12 -11 -11 -11 -11 -11 -11 -10 -10 -10 -11 -11 -11 -11 -11 -10 -10 -10
-17 -17 -16 -16 -16 -16 -16 -16 -16 -15 -14 -14 -14 -13 -14 -11 -13 -13 -13 -13 -11 -11 -11 -12 -12 -12 -12 -12 -12 -12 -11 -11 -11 -11 -11 -11 -11 -11 -11 -11 -11 -11 -11 -11
-17 -16 -16 -16 -16 -16 -16 -16 -16 -16 -17 -15 -13 -13 -14 -13 -13 -13 -13 -13 -12 -12 -11 -12 -12 -12 -12 -12 -11 -11 -11 -12 -11 -11 -12 -12 -11 -11 -12 -12 -12 -12 -12 -11
-17 -17 -17 -16 -16 -16 -16 -16 -16 -16 -16 -15 -15 -16 -15 -14 -14 -14 -14 -14 -14 -14 -14 -14 -13 -12 -12 -12 -12 -12 -12 -11 -11 -11 -11 -12 -12 -12 -13 -12 -12 -12 -12 -11
-17 -17 -17 -16 -16 -16 -16 -16 -16 -16 -16 -16 -15 -15 -15 -15 -16 -16 -16 -14 -14 -14 -14 -14 -14 -14 -13 -13 -13 -13 -13 -13 -13 -13 -13 -14 -14 -13 -13 -12 -12 -12 -12 -12
-17 -17 -17 -17 -17 -17 -17 -16 -16 -16 -16 -16 -16 -16 -16 -15 -15 -16 -15 -15 -15 -16 -16 -16 -16 -16 -15 -14 -14 -14 -13 -14 -14 -14 -14 -14 -14 -13 -13 -13 -13 -12 -12 -13
-17 -17 -17 -17 -17 -17 -17 -17 -17 -17 -17 -17 -17 -17 -16 -16 -16 -16 -16 -16 -16 -16 -16 -16 -16 -15 -15 -16 -16 -16 -15 -15 -15 -15 -15 -15 -15 -14 -14 -14 -14 -14 -14 -14
-16 -16 -16 -16 -16 -16 -17 -17 -17 -17 -17 -17 -17 -17 -17 -17 -17 -17 -17 -17 -17 -17 -17 -17 -17 -17 -17 -16 -16 -16 -16 -17 -17 -17 -16 -16 -16 -16 -16 -16 -16 -15 -15 -15
-16 -16 -16 -16 -16 -16 -16 -16 -16 -16 -17 -17 -17 -17 -17 -18 -18 -18 -18 -18 -18 -18 -18 -18 -17 -17 -18 -18 -18 -17 -17 -17 -17 -17 -17 -17 -17 -17 -17 -17 -17 -17 -17 -17
-16 -16 -16 -16 -16 -16 -16 -16 -16 -17 -17 -17 -17 -17 -18 -18 -18 -18 -19 -19 -19 -19 -18 -18 -18 -18 -18 -18 -18 -19 -18 -18 -18 -18 -18 -18 -18 -18 -17 -17 -17 -17 -18 -18
-16 -16 -16 -16 -16 -16 -16 -16 -16 -17 -17 -17 -17 -18 -18 -19 -19 -19 -19 -19 -19 -19 -19 -19 -19 -19 -19 -18 -19 -19 -19 -20 -19 -19 -19 -19 -19 -19 -19 -19 -19 -19 -19 -19
-16 -16 -16 -16 -16 -16 -16 -16 -17 -17 -17 -18 -18 -18 -19 -19 -19 -19 -20 -19 -19 -19 -20 -20 -20 -20 -20 -20 -20 -20 -20 -20 -20 -21 -20 -20 -20 -20 -20 -20 -20 -20 -20 -20
-16 -16 -16 -16 -16 -16 -16 -16 -17 -17 -18 -19 -19 -19 -19 -19 -20 -20 -20 -19 -20 -20 -20 -20 -21 -21 -21 -21 -21 -22 -22 -22 -22 -22 -22 -22 -21 -21 -21 -21 -21 -20 -20 -20
-16 -16 -16 -16 -16 -16 -17 -16 -17 -17 -19 -19 -19 -19 -19 -20 -20 -20 -20 -20 -20 -21 -21 -21 -21 -21 -22 -23 -23 -24 -24 -23 -23 -23 -22 -22 -21 -21 -21 -21 -21 -21 -21 -21
-16 -17 -17 -17 -17 -17 -17 -17 -17 -18 -19 -19 -19 -19 -20 -20 -20 -20 -20 -21 -21 -21 -21 -21 -22 -23 -23 -23 -23 -23 -24 -24 -23 -23 -23 -23 -22 -22 -22 -22 -21 -21 -21 -21
-16 -17 -17 -17 -17 -17 -17 -17 -18 -18 -19 -19 -20 -20 -20 -20 -20 -21 -21 -22 -22 -22 -22 -22 -22 -23 -24 -24 -24 -23 -23 -24 -24 -24 -23 -23 -23 -23 -22 -22 -22 -22 -22 -22

GFSNGP_500_temp_105.txt.gz
Temp
-12 -13 -12 -12 -12 -13 -11 -11 -11 -10 -10 -10 -10 -9 -9 -8 -8 -8 -8 -9 -9 -8 -7 -7 -6 -7 -7 -7 -7 -7 -5 -6 -6 -6 -6 -6 -7 -6 -6 -6 -6 -6 -6 -6
-14 -13 -13 -13 -12 -12 -12 -13 -13 -12 -11 -11 -11 -9 -9 -9 -9 -9 -9 -9 -9 -9 -8 -8 -8 -8 -8 -8 -8 -7 -7 -6 -6 -6 -6 -6 -7 -7 -6 -6 -7 -6 -6 -6
-14 -14 -14 -14 -14 -13 -13 -13 -13 -12 -12 -11 -10 -9 -9 -9 -9 -9 -9 -9 -9 -9 -9 -8 -8 -8 -8 -8 -9 -7 -7 -6 -6 -6 -6 -6 -6 -6 -6 -6 -6 -6 -6 -6
-15 -14 -14 -14 -14 -14 -13 -13 -13 -12 -11 -11 -11 -9 -9 -9 -9 -10 -10 -9 -9 -9 -8 -8 -8 -8 -8 -8 -8 -8 -7 -7 -7 -7 -6 -6 -6 -6 -6 -6 -6 -6 -6 -7
-16 -15 -14 -13 -14 -14 -14 -14 -13 -11 -11 -11 -9 -10 -10 -10 -10 -10 -10 -9 -9 -9 -8 -8 -8 -9 -8 -9 -8 -8 -8 -8 -8 -7 -7 -6 -6 -6 -6 -7 -7 -7 -6 -6
-15 -15 -15 -14 -13 -13 -14 -15 -12 -10 -11 -11 -11 -11 -10 -10 -10 -10 -10 -9 -9 -9 -9 -9 -9 -9 -9 -9 -8 -8 -8 -8 -8 -8 -7 -7 -6 -7 -7 -7 -7 -7 -7 -7
-16 -15 -15 -14 -14 -13 -14 -15 -14 -12 -13 -12 -12 -11 -10 -10 -10 -10 -10 -10 -10 -9 -9 -9 -9 -9 -8 -9 -8 -8 -9 -8 -8 -8 -8 -7 -7 -7 -8 -8 -7 -7 -7 -7
-16 -14 -14 -15 -14 -15 -15 -15 -14 -13 -13 -12 -12 -12 -11 -11 -11 -10 -10 -10 -10 -10 -10 -10 -10 -9 -9 -9 -8 -8 -9 -9 -8 -8 -8 -8 -7 -7 -7 -7 -8 -7 -7 -7
-15 -15 -15 -15 -15 -15 -15 -15 -14 -14 -14 -14 -13 -12 -12 -12 -11 -11 -11 -10 -10 -10 -10 -9 -10 -10 -10 -9 -9 -9 -9 -9 -9 -9 -9 -8 -8 -8 -8 -8 -7 -7 -7 -8
-15 -15 -15 -15 -15 -15 -15 -15 -14 -14 -14 -14 -13 -13 -13 -13 -13 -12 -12 -12 -11 -10 -10 -9 -9 -9 -10 -9 -10 -9 -9 -9 -9 -9 -9 -9 -9 -9 -9 -8 -8 -8 -8 -8
-16 -16 -16 -16 -16 -16 -16 -15 -14 -14 -14 -14 -14 -14 -13 -13 -13 -12 -12 -12 -12 -11 -11 -10 -10 -10 -10 -10 -10 -10 -10 -10 -10 -9 -9 -9 -9 -9 -10 -9 -9 -9 -9 -9
-16 -16 -16 -16 -16 -16 -16 -16 -15 -14 -14 -14 -14 -14 -13 -13 -13 -13 -13 -12 -12 -12 -12 -11 -11 -11 -11 -12 -11 -10 -10 -10 -10 -10 -10 -10 -10 -10 -10 -10 -9 -10 -10 -10
-16 -16 -16 -16 -16 -16 -16 -16 -16 -15 -14 -14 -14 -14 -14 -14 -12 -13 -13 -12 -13 -12 -12 -12 -12 -12 -11 -11 -11 -11 -11 -11 -11 -11 -11 -11 -10 -10 -10 -10 -10 -10 -10 -10
-16 -16 -16 -16 -16 -16 -16 -15 -15 -15 -15 -15 -14 -14 -14 -14 -14 -13 -13 -13 -12 -12 -12 -12 -12 -12 -12 -11 -11 -11 -11 -11 -11 -11 -11 -11 -11 -11 -11 -11 -11 -11 -11 -11
-17 -16 -16 -16 -16 -16 -16 -16 -16 -15 -15 -16 -15 -14 -14 -14 -14 -14 -14 -14 -14 -13 -12 -12 -12 -11 -11 -11 -10 -11 -11 -11 -11 -10 -11 -11 -11 -11 -11 -11 -11 -11 -11 -11
-17 -17 -16 -16 -16 -16 -16 -16 -16 -16 -15 -15 -15 -15 -16 -17 -15 -14 -15 -15 -14 -14 -14 -14 -13 -12 -12 -12 -12 -12 -11 -11 -12 -11 -11 -11 -12 -12 -12 -12 -12 -11 -11 -11
-16 -16 -16 -16 -16 -16 -16 -16 -16 -16 -16 -16 -16 -15 -15 -15 -15 -15 -15 -15 -15 -16 -14 -14 -16 -15 -14 -14 -14 -14 -14 -14 -13 -14 -12 -13 -12 -13 -13 -13 -12 -12 -12 -12
-16 -16 -16 -16 -16 -16 -16 -16 -16 -16 -16 -16 -16 -16 -16 -16 -15 -15 -16 -16 -16 -16 -16 -15 -16 -16 -15 -15 -15 -15 -15 -15 -14 -14 -14 -14 -14 -13 -14 -13 -13 -13 -14 -14
-16 -16 -16 -16 -16 -16 -16 -16 -16 -16 -16 -16 -16 -16 -16 -16 -16 -16 -16 -16 -16 -16 -16 -16 -16 -16 -16 -16 -16 -16 -16 -16 -16 -16 -16 -16 -17 -17 -17 -17 -17 -17 -16 -17
-16 -16 -15 -15 -16 -16 -16 -16 -15 -16 -16 -15 -15 -16 -16 -16 -16 -16 -16 -16 -16 -17 -17 -17 -17 -17 -17 -17 -17 -17 -17 -17 -17 -17 -17 -17 -17 -17 -17 -17 -17 -16 -16 -16
-15 -15 -15 -15 -16 -15 -16 -16 -16 -15 -15 -15 -15 -16 -16 -16 -17 -17 -17 -17 -17 -18 -18 -18 -18 -18 -17 -17 -17 -17 -17 -17 -17 -18 -18 -18 -18 -18 -18 -18 -18 -18 -18 -17
-15 -15 -15 -16 -16 -16 -16 -16 -16 -16 -16 -16 -16 -17 -17 -17 -17 -18 -18 -18 -18 -18 -19 -19 -19 -18 -18 -18 -18 -17 -18 -18 -18 -18 -18 -19 -19 -19 -19 -19 -19 -19 -19 -19
-15 -15 -15 -15 -15 -15 -15 -16 -16 -16 -16 -16 -16 -16 -17 -17 -18 -18 -18 -18 -19 -19 -19 -19 -19 -19 -18 -19 -19 -19 -19 -19 -20 -19 -19 -19 -20 -20 -20 -21 -21 -20 -20 -20
-15 -16 -16 -15 -15 -16 -16 -16 -16 -16 -16 -16 -16 -16 -17 -18 -18 -19 -19 -19 -19 -19 -19 -19 -19 -19 -19 -19 -20 -20 -20 -20 -21 -21 -20 -21 -22 -22 -22 -21 -22 -22 -21 -21
-15 -15 -15 -16 -16 -16 -17 -16 -16 -17 -16 -16 -16 -17 -17 -19 -19 -19 -19 -20 -20 -20 -19 -19 -20 -20 -20 -20 -21 -21 -21 -21 -22 -22 -22 -23 -23 -23 -22 -22 -22 -22 -22 -21
-15 -15 -15 -15 -16 -16 -16 -17 -17 -17 -17 -17 -17 -18 -18 -19 -19 -19 -20 -20 -20 -20 -20 -20 -20 -21 -21 -21 -21 -21 -22 -22 -23 -23 -23 -23 -23 -23 -23 -23 -23 -22 -22 -21
-15 -15 -15 -16 -16 -16 -17 -17 -17 -18 -18 -18 -18 -18 -19 -19 -19 -20 -20 -20 -20 -20 -20 -21 -21 -22 -22 -22 -22 -22 -22 -23 -23 -23 -23 -23 -24 -24 -24 -23 -23 -23 -23 -22

GFSNGP_500_temp_111.txt.gz
Temp
-12 -11 -11 -11 -12 -12 -12 -10 -10 -11 -10 -9 -8 -7 -6 -7 -5 -5 -6 -6 -6 -5 -5 -6 -6 -6 -5 -6 -6 -6 -6 -6 -6 -6 -7 -5 -6 -6 -6 -5 -6 -5 -5 -5
-14 -12 -11 -12 -12 -11 -11 -11 -10 -11 -11 -8 -6 -5 -7 -7 -7 -5 -6 -5 -6 -7 -6 -6 -7 -6 -6 -5 -7 -6 -6 -5 -6 -7 -6 -6 -6 -6 -5 -6 -5 -5 -5 -5
-13 -13 -12 -12 -11 -11 -12 -12 -11 -12 -10 -9 -7 -6 -8 -8 -5 -3 -8 -9 -8 -8 -8 -8 -7 -7 -7 -7 -7 -6 -6 -6 -7 -7 -6 -5 -5 -6 -5 -5 -5 -5 -6 -6
-14 -13 -12 -12 -12 -11 -12 -12 -11 -11 -9 -9 -8 -7 -7 -7 -7 -8 -7 -8 -9 -8 -8 -8 -8 -8 -7 -7 -8 -7 -7 -7 -8 -7 -6 -5 -6 -6 -6 -5 -6 -5 -6 -6
-14 -13 -14 -13 -13 -12 -11 -12 -11 -11 -9 -9 -9 -7 -8 -8 -8 -8 -8 -9 -8 -9 -8 -8 -7 -8 -7 -7 -6 -7 -7 -7 -6 -7 -7 -7 -6 -6 -6 -6 -5 -6 -5 -5
-15 -14 -14 -14 -13 -13 -13 -12 -12 -12 -10 -10 -9 -8 -8 -9 -9 -9 -9 -8 -8 -8 -8 -8 -7 -7 -8 -8 -8 -8 -8 -7 -8 -7 -7 -7 -7 -7 -6 -6 -6 -5 -5 -5
-14 -14 -14 -13 -13 -13 -13 -13 -12 -12 -12 -12 -11 -10 -9 -9 -9 -9 -10 -10 -8 -8 -7 -8 -8 -8 -8 -8 -7 -7 -9 -8 -8 -8 -8 -8 -8 -7 -7 -6 -6 -6 -6 -5
-15 -14 -14 -14 -13 -13 -13 -13 -12 -11 -12 -12 -12 -12 -11 -11 -11 -10 -9 -10 -9 -9 -9 -9 -9 -9 -8 -9 -8 -9 -8 -8 -9 -8 -8 -8 -8 -8 -8 -8 -7 -7 -7 -7
-15 -14 -15 -15 -14 -14 -14 -13 -14 -14 -13 -12 -12 -12 -12 -12 -12 -11 -11 -10 -10 -8 -8 -9 -10 -10 -9 -9 -9 -9 -9 -8 -9 -9 -9 -9 -8 -8 -8 -8 -8 -7 -7 -7
-15 -15 -14 -15 -15 -15 -14 -15 -15 -14 -14 -13 -13 -12 -12 -13 -13 -12 -12 -11 -10 -9 -9 -9 -10 -10 -10 -10 -9 -9 -10 -9 -9 -9 -9 -9 -9 -9 -9 -9 -8 -8 -8 -8
-15 -15 -16 -16 -16 -15 -14 -14 -14 -14 -14 -13 -13 -13 -12 -12 -12 -12 -12 -12 -11 -10 -10 -11 -10 -10 -10 -10 -10 -10 -10 -10 -10 -10 -10 -9 -10 -10 -10 -9 -9 -9 -9 -9
-15 -15 -16 -16 -15 -15 -15 -14 -14 -14 -14 -13 -13 -13 -12 -12 -12 -12 -12 -11 -11 -11 -11 -11 -11 -11 -11 -10 -10 -11 -10 -10 -10 -10 -10 -10 -10 -10 -10 -10 -9 -9 -10 -10
-16 -15 -15 -16 -16 -15 -15 -14 -14 -14 -14 -13 -13 -13 -13 -13 -13 -13 -13 -13 -12 -12 -12 -12 -11 -11 -11 -11 -11 -11 -11 -11 -11 -11 -11 -11 -11 -11 -11 -10 -10 -10 -10 -10
-16 -16 -16 -16 -15 -15 -14 -14 -14 -14 -14 -15 -14 -14 -14 -13 -13 -13 -13 -13 -13 -13 -13 -13 -12 -12 -12 -12 -12 -12 -12 -11 -11 -11 -11 -11 -10 -12 -11 -11 -11 -11 -11 -10
-16 -16 -15 -15 -15 -15 -15 -14 -15 -14 -14 -14 -14 -14 -14 -14 -14 -14 -14 -14 -13 -13 -13 -13 -13 -13 -13 -13 -12 -12 -12 -12 -11 -11 -11 -12 -12 -12 -12 -11 -11 -11 -11 -11
-16 -16 -16 -15 -15 -15 -15 -15 -15 -15 -14 -14 -14 -15 -15 -15 -15 -15 -15 -15 -14 -14 -13 -13 -13 -13 -13 -13 -13 -13 -13 -13 -12 -12 -12 -12 -12 -12 -12 -12 -12 -12 -12 -12
-16 -16 -16 -16 -16 -16 -15 -15 -15 -14 -15 -15 -15 -15 -15 -15 -15 -15 -15 -15 -15 -14 -14 -14 -13 -14 -14 -13 -13 -13 -14 -13 -14 -12 -13 -13 -12 -12 -12 -12 -12 -12 -13 -12
-15 -16 -16 -16 -16 -16 -16 -16 -15 -15 -15 -15 -15 -15 -16 -16 -15 -15 -15 -15 -15 -15 -15 -15 -15 -15 -15 -14 -14 -14 -14 -14 -14 -13 -13 -14 -14 -14 -14 -14 -13 -12 -13 -14
-14 -15 -15 -15 -15 -15 -15 -15 -15 -15 -15 -15 -15 -15 -15 -15 -15 -15 -15 -15 -15 -15 -15 -15 -15 -16 -16 -16 -16 -16 -15 -15 -15 -15 -15 -15 -15 -15 -15 -15 -14 -14 -13 -15
-14 -14 -14 -14 -14 -15 -15 -14 -14 -15 -15 -15 -15 -15 -15 -15 -15 -15 -15 -15 -15 -15 -15 -15 -15 -16 -16 -16 -16 -16 -17 -17 -17 -17 -17 -16 -16 -16 -16 -17 -17 -16 -16 -16
-14 -14 -14 -15 -14 -14 -14 -15 -15 -15 -15 -15 -15 -15 -15 -15 -15 -15 -15 -16 -16 -16 -15 -15 -16 -17 -17 -17 -17 -17 -17 -17 -17 -17 -18 -18 -18 -18 -17 -17 -17 -17 -17 -17
-14 -14 -14 -14 -14 -14 -15 -15 -15 -14 -14 -15 -15 -15 -15 -15 -15 -16 -15 -16 -16 -16 -15 -16 -17 -17 -18 -18 -18 -18 -18 -18 -18 -18 -18 -18 -18 -18 -18 -18 -18 -18 -18 -18
-14 -14 -14 -14 -14 -14 -15 -15 -15 -15 -15 -15 -15 -15 -15 -15 -15 -16 -16 -16 -16 -16 -16 -16 -17 -18 -19 -18 -18 -19 -19 -19 -19 -19 -19 -19 -18 -18 -18 -18 -18 -19 -19 -19
-14 -14 -14 -14 -14 -14 -14 -15 -15 -15 -15 -15 -15 -16 -15 -15 -15 -16 -16 -16 -17 -17 -17 -18 -18 -19 -19 -19 -19 -20 -20 -20 -20 -20 -20 -20 -19 -20 -20 -20 -20 -20 -20 -20
-13 -13 -14 -14 -14 -14 -14 -15 -15 -15 -16 -16 -16 -16 -16 -16 -16 -16 -17 -17 -17 -17 -18 -18 -19 -19 -19 -20 -20 -20 -20 -20 -20 -20 -21 -21 -21 -21 -21 -21 -21 -22 -22 -22
-14 -14 -14 -14 -14 -14 -15 -15 -15 -16 -16 -16 -16 -16 -17 -17 -16 -17 -17 -17 -18 -19 -19 -20 -20 -20 -20 -20 -20 -20 -20 -20 -21 -21 -22 -22 -22 -22 -22 -22 -22 -22 -22 -22
-14 -14 -15 -15 -15 -15 -15 -15 -15 -15 -16 -16 -17 -17 -18 -17 -17 -17 -17 -18 -18 -19 -19 -20 -20 -20 -20 -20 -20 -20 -21 -21 -22 -22 -22 -22 -22 -22 -22 -22 -23 -23 -23 -23

GFSNGP_500_temp_114.txt.gz
Temp
-12 -12 -12 -12 -12 -12 -12 -10 -9 -10 -10 -9 -9 -9 -8 -8 -5 -6 -6 -6 -5 -5 -5 -5 -4 -5 -5 -6 -6 -6 -6 -6 -6 -6 -6 -5 -5 -6 -6 -6 -6 -6 -6 -6
-13 -12 -12 -12 -12 -12 -12 -11 -10 -10 -10 -9 -8 -9 -8 -8 -7 -6 -6 -7 -6 -7 -6 -7 -7 -7 -6 -6 -6 -6 -6 -6 -6 -6 -6 -6 -6 -7 -6 -7 -6 -6 -6 -6
-14 -13 -13 -12 -12 -12 -12 -11 -10 -10 -10 -8 -7 -8 -7 -7 -8 -8 -8 -8 -7 -7 -7 -7 -7 -7 -6 -6 -6 -6 -6 -5 -6 -7 -6 -6 -6 -6 -5 -6 -6 -6 -6 -6
-14 -14 -13 -13 -12 -12 -12 -11 -11 -10 -10 -9 -8 -7 -7 -8 -8 -8 -7 -7 -8 -8 -8 -7 -7 -7 -7 -6 -7 -6 -5 -6 -6 -6 -6 -6 -6 -7 -6 -6 -6 -6 -6 -7
-15 -15 -14 -13 -13 -12 -12 -12 -11 -11 -11 -10 -9 -8 -8 -8 -8 -9 -10 -9 -8 -8 -7 -8 -7 -7 -7 -7 -7 -7 -6 -5 -6 -6 -7 -6 -6 -7 -7 -6 -6 -6 -7 -6
-15 -15 -14 -14 -14 -13 -12 -12 -12 -11 -11 -10 -10 -9 -8 -9 -8 -10 -11 -9 -8 -9 -8 -8 -7 -8 -7 -7 -7 -7 -6 -6 -7 -6 -6 -7 -7 -8 -7 -7 -7 -6 -7 -7
-15 -15 -15 -14 -13 -13 -13 -12 -12 -12 -11 -11 -11 -11 -10 -10 -10 -10 -11 -11 -10 -9 -9 -9 -8 -7 -8 -7 -6 -7 -6 -7 -7 -7 -7 -7 -8 -8 -7 -7 -7 -7 -8 -7
-14 -15 -15 -15 -15 -15 -14 -13 -13 -12 -12 -12 -12 -11 -11 -10 -10 -10 -9 -9 -9 -10 -10 -10 -9 -9 -8 -9 -9 -9 -8 -7 -7 -7 -8 -7 -8 -8 -8 -9 -9 -8 -8 -7
-15 -15 -15 -15 -15 -15 -14 -14 -13 -13 -12 -12 -11 -11 -10 -11 -10 -10 -10 -10 -10 -10 -9 -9 -10 -10 -9 -9 -9 -9 -9 -9 -8 -8 -8 -9 -9 -9 -9 -9 -9 -9 -8 -7
-15 -15 -15 -15 -15 -15 -15 -14 -14 -13 -13 -12 -12 -12 -12 -11 -11 -10 -10 -10 -10 -10 -9 -10 -10 -10 -10 -9 -10 -9 -9 -10 -9 -9 -9 -9 -10 -10 -10 -9 -9 -9 -8 -8
-15 -15 -15 -15 -15 -14 -14 -14 -14 -14 -13 -13 -12 -12 -12 -12 -11 -11 -11 -11 -10 -11 -10 -9 -10 -10 -10 -10 -10 -10 -10 -10 -10 -10 -9 -9 -10 -9 -9 -9 -9 -9 -9 -9
-16 -16 -16 -15 -15 -15 -15 -14 -13 -14 -13 -13 -13 -13 -13 -12 -12 -12 -12 -11 -11 -11 -10 -10 -11 -10 -10 -10 -10 -10 -10 -10 -10 -10 -10 -10 -10 -10 -10 -10 -10 -10 -10 -10
-16 -16 -16 -15 -15 -15 -14 -14 -14 -13 -13 -13 -13 -12 -12 -12 -12 -12 -12 -11 -11 -11 -11 -10 -11 -11 -11 -11 -11 -11 -11 -11 -11 -11 -10 -10 -10 -10 -10 -11 -11 -10 -10 -10
-16 -16 -16 -16 -15 -15 -15 -14 -14 -14 -14 -13 -13 -12 -12 -12 -12 -12 -13 -13 -13 -12 -11 -11 -11 -11 -11 -11 -11 -12 -12 -12 -12 -12 -11 -11 -11 -11 -10 -11 -11 -10 -10 -11
-16 -16 -16 -16 -15 -15 -15 -15 -14 -14 -14 -14 -14 -14 -13 -13 -12 -12 -13 -13 -13 -13 -13 -13 -12 -12 -12 -12 -13 -12 -12 -12 -12 -13 -13 -12 -12 -12 -12 -12 -11 -12 -12 -11
-16 -16 -16 -15 -16 -16 -15 -15 -15 -15 -15 -15 -14 -14 -14 -14 -14 -14 -14 -14 -14 -14 -14 -14 -14 -14 -13 -13 -13 -13 -13 -13 -13 -13 -13 -13 -13 -12 -12 -13 -12 -12 -12 -12
-16 -16 -16 -16 -16 -15 -15 -15 -15 -15 -15 -15 -15 -14 -14 -14 -14 -14 -14 -14 -14 -15 -15 -15 -14 -14 -14 -14 -13 -13 -13 -12 -13 -13 -12 -12 -12 -13 -13 -13 -13 -12 -12 -12
-16 -15 -15 -15 -15 -15 -15 -15 -15 -15 -15 -15 -15 -16 -16 -15 -15 -14 -14 -15 -15 -15 -15 -15 -15 -15 -14 -14 -14 -14 -15 -14 -14 -14 -15 -14 -14 -14 -14 -14 -13 -14 -14 -14
-15 -15 -15 -15 -15 -15 -15 -14 -14 -14 -14 -15 -14 -15 -15 -15 -15 -15 -15 -15 -15 -15 -15 -15 -16 -15 -15 -15 -16 -16 -16 -15 -15 -15 -15 -15 -16 -16 -16 -16 -15 -15 -15 -16
-14 -14 -14 -14 -14 -14 -14 -14 -14 -14 -14 -15 -14 -14 -14 -14 -15 -15 -15 -15 -15 -15 -15 -15 -15 -15 -15 -15 -15 -16 -16 -16 -16 -16 -16 -16 -16 -16 -16 -16 -16 -16 -16 -16
-14 -14 -14 -14 -14 -14 -14 -14 -14 -14 -14 -14 -14 -13 -13 -14 -14 -14 -15 -15 -15 -15 -15 -15 -15 -16 -15 -15 -15 -15 -16 -17 -17 -18 -18 -18 -18 -18 -17 -17 -17 -17 -16 -16
-14 -14 -14 -14 -14 -14 -14 -14 -14 -14 -14 -15 -15 -14 -15 -14 -14 -15 -15 -15 -15 -15 -15 -15 -15 -16 -16 -16 -17 -17 -17 -17 -18 -18 -18 -18 -19 -19 -19 -19 -19 -19 -18 -18
-14 -14 -14 -14 -14 -14 -14 -14 -14 -14 -15 -14 -15 -15 -15 -15 -15 -15 -15 -15 -15 -16 -16 -16 -16 -16 -16 -17 -17 -18 -18 -19 -19 -19 -19 -19 -19 -19 -19 -19 -19 -19 -19 -19
-14 -14 -14 -14 -14 -14 -14 -15 -15 -15 -15 -15 -15 -15 -15 -15 -16 -15 -15 -15 -16 -16 -16 -16 -17 -17 -17 -18 -18 -19 -19 -19 -19 -19 -19 -20 -19 -20 -19 -19 -19 -19 -19 -20
-14 -14 -14 -14 -14 -14 -15 -15 -15 -15 -15 -15 -15 -15 -15 -15 -15 -16 -16 -16 -16 -17 -17 -17 -17 -18 -18 -19 -19 -19 -19 -19 -19 -20 -20 -20 -20 -20 -21 -21 -21 -21 -21 -21
-14 -14 -14 -14 -14 -15 -15 -15 -15 -15 -15 -15 -16 -16 -15 -15 -16 -17 -16 -17 -17 -16 -16 -17 -18 -18 -19 -19 -19 -19 -20 -20 -20 -20 -20 -21 -21 -22 -22 -22 -22 -22 -22 -22
-14 -14 -14 -15 -15 -16 -16 -16 -15 -15 -15 -16 -16 -16 -16 -16 -17 -17 -17 -16 -17 -17 -18 -18 -19 -19 -20 -19 -19 -19 -20 -20 -20 -21 -21 -22 -22 -22 -22 -22 -22 -23 -23 -22

GFSNGP_500_temp_117.txt.gz
Temp
-12 -13 -13 -12 -12 -11 -11 -10 -10 -10 -9 -9 -9 -9 -8 -9 -7 -8 -7 -8 -8 -7 -6 -6 -6 -7 -7 -7 -6 -6 -7 -6 -6 -6 -6 -6 -7 -6 -6 -5 -5 -6 -6 -6
-12 -13 -13 -13 -12 -11 -11 -11 -11 -11 -11 -10 -10 -9 -10 -9 -8 -8 -7 -8 -7 -7 -5 -5 -6 -7 -6 -7 -7 -6 -7 -6 -7 -7 -6 -7 -7 -6 -6 -6 -6 -6 -6 -6
-14 -13 -13 -12 -12 -12 -12 -11 -11 -11 -11 -10 -10 -10 -9 -9 -8 -8 -8 -9 -8 -7 -7 -6 -5 -6 -6 -7 -7 -6 -7 -7 -6 -6 -6 -6 -6 -7 -6 -6 -6 -6 -6 -6
-14 -14 -13 -12 -12 -12 -12 -12 -12 -11 -11 -11 -10 -10 -9 -9 -9 -9 -8 -8 -8 -7 -7 -7 -7 -7 -6 -7 -6 -6 -6 -6 -6 -5 -6 -6 -6 -7 -7 -6 -6 -6 -6 -5
-14 -14 -14 -13 -13 -12 -12 -12 -12 -12 -12 -12 -11 -10 -10 -10 -9 -9 -9 -9 -8 -8 -8 -7 -8 -7 -7 -7 -6 -6 -6 -6 -6 -6 -6 -6 -6 -6 -6 -6 -6 -6 -6 -6
-14 -14 -14 -14 -14 -13 -13 -13 -12 -12 -12 -12 -12 -11 -10 -10 -10 -9 -10 -9 -8 -8 -9 -9 -8 -7 -7 -6 -6 -6 -6 -6 -6 -6 -6 -7 -6 -6 -6 -6 -6 -6 -7 -7
-15 -15 -15 -15 -14 -14 -14 -13 -13 -12 -12 -12 -12 -12 -11 -11 -10 -10 -10 -11 -10 -10 -9 -8 -7 -7 -9 -8 -7 -7 -7 -7 -7 -7 -6 -6 -7 -6 -6 -7 -7 -8 -8 -7
-15 -15 -15 -15 -15 -14 -14 -14 -13 -13 -13 -12 -11 -12 -12 -11 -11 -11 -10 -11 -10 -10 -10 -9 -7 -8 -8 -8 -8 -8 -7 -7 -7 -7 -6 -7 -7 -7 -8 -8 -8 -9 -9 -8
-15 -15 -14 -15 -14 -15 -14 -14 -14 -14 -13 -13 -12 -12 -12 -12 -12 -11 -11 -11 -11 -10 -10 -9 -9 -8 -8 -8 -8 -9 -9 -8 -8 -8 -7 -7 -7 -7 -8 -8 -9 -9 -9 -9
-15 -15 -15 -15 -15 -15 -15 -15 -14 -14 -13 -13 -13 -12 -12 -11 -11 -11 -11 -11 -10 -10 -10 -10 -10 -9 -9 -9 -9 -10 -9 -9 -10 -10 -8 -8 -8 -8 -9 -9 -9 -10 -10 -9
-16 -16 -15 -15 -15 -15 -14 -14 -14 -14 -14 -13 -13 -13 -12 -12 -11 -11 -11 -11 -10 -10 -10 -9 -10 -9 -9 -10 -10 -10 -10 -10 -10 -10 -10 -9 -9 -9 -9 -9 -9 -9 -10 -9
-17 -16 -16 -15 -15 -15 -14 -14 -14 -13 -13 -13 -13 -12 -12 -12 -11 -11 -11 -10 -10 -10 -11 -11 -10 -10 -10 -10 -10 -10 -11 -10 -10 -11 -11 -11 -10 -10 -10 -10 -10 -10 -10 -10
-17 -16 -16 -16 -15 -15 -14 -14 -13 -13 -13 -13 -13 -13 -13 -12 -11 -11 -11 -11 -11 -11 -11 -11 -11 -11 -10 -10 -10 -11 -11 -11 -11 -12 -11 -11 -11 -11 -11 -10 -10 -10 -10 -10
-16 -16 -16 -16 -15 -15 -15 -15 -14 -13 -13 -14 -14 -13 -13 -13 -12 -12 -12 -12 -12 -11 -11 -11 -11 -11 -11 -11 -10 -11 -11 -11 -11 -12 -12 -12 -12 -12 -12 -11 -11 -10 -10 -11
-17 -16 -16 -16 -15 -15 -15 -14 -14 -14 -14 -14 -14 -13 -13 -13 -13 -13 -12 -12 -12 -12 -11 -12 -12 -12 -12 -12 -11 -11 -11 -12 -12 -11 -11 -12 -12 -12 -12 -12 -12 -12 -12 -11
-16 -16 -16 -16 -15 -15 -15 -15 -15 -15 -14 -14 -14 -14 -14 -14 -14 -14 -14 -13 -13 -13 -12 -13 -13 -13 -13 -13 -13 -13 -13 -13 -13 -13 -13 -13 -13 -13 -13 -13 -13 -13 -13 -13
-16 -16 -16 -16 -15 -15 -15 -15 -15 -15 -15 -14 -14 -14 -14 -14 -14 -14 -14 -14 -14 -14 -13 -14 -13 -13 -13 -13 -13 -13 -13 -14 -14 -14 -13 -13 -13 -13 -13 -13 -13 -13 -13 -13
-16 -15 -15 -16 -16 -15 -15 -15 -15 -15 -15 -15 -15 -14 -14 -14 -14 -15 -15 -15 -14 -14 -14 -14 -14 -14 -14 -14 -14 -14 -14 -14 -13 -13 -13 -14 -14 -14 -14 -14 -15 -15 -15 -15
-14 -15 -15 -15 -15 -15 -15 -15 -15 -15 -15 -15 -15 -15 -15 -15 -15 -14 -14 -14 -15 -15 -14 -14 -14 -14 -14 -14 -14 -14 -14 -14 -14 -14 -14 -14 -14 -14 -15 -15 -15 -15 -15 -15
-14 -14 -15 -15 -15 -15 -15 -15 -15 -15 -15 -15 -15 -15 -15 -15 -15 -15 -15 -15 -14 -14 -14 -14 -14 -14 -14 -14 -15 -15 -15 -15 -15 -15 -15 -15 -15 -16 -16 -16 -16 -16 -16 -16
-14 -14 -14 -14 -15 -15 -15 -15 -14 -14 -14 -15 -14 -14 -15 -15 -15 -15 -15 -15 -15 -15 -14 -14 -15 -15 -14 -14 -15 -15 -15 -15 -15 -16 -16 -16 -16 -17 -17 -17 -17 -17 -17 -17
-14 -14 -14 -14 -14 -14 -14 -14 -14 -14 -14 -14 -14 -14 -14 -14 -14 -13 -14 -14 -14 -14 -14 -14 -14 -15 -15 -15 -16 -16 -15 -15 -16 -16 -17 -18 -18 -18 -18 -18 -18 -19 -19 -18
-14 -14 -14 -14 -14 -14 -14 -14 -14 -14 -14 -14 -14 -14 -14 -14 -14 -15 -15 -15 -14 -14 -14 -15 -15 -15 -16 -16 -16 -17 -17 -17 -17 -18 -18 -18 -19 -19 -19 -19 -19 -19 -20 -20
-14 -14 -14 -14 -14 -14 -14 -14 -14 -14 -14 -14 -15 -15 -14 -14 -15 -15 -15 -15 -15 -15 -15 -15 -16 -16 -16 -16 -16 -16 -17 -18 -18 -19 -19 -19 -19 -19 -20 -20 -20 -20 -20 -20
-14 -14 -15 -14 -14 -14 -14 -14 -14 -14 -14 -15 -15 -15 -15 -15 -15 -15 -15 -15 -15 -16 -16 -16 -16 -16 -16 -16 -17 -17 -18 -18 -18 -19 -19 -19 -20 -20 -20 -20 -20 -20 -20 -21
-15 -15 -15 -15 -15 -15 -15 -15 -15 -15 -15 -16 -15 -16 -16 -15 -16 -16 -16 -16 -16 -17 -17 -17 -17 -16 -17 -17 -18 -18 -19 -19 -19 -19 -19 -19 -20 -20 -20 -21 -21 -22 -22 -22
-15 -14 -14 -14 -14 -14 -15 -15 -15 -15 -16 -16 -16 -16 -16 -15 -16 -16 -16 -17 -17 -18 -17 -17 -17 -17 -17 -18 -18 -18 -19 -19 -20 -20 -20 -20 -20 -21 -21 -22 -22 -22 -22 -22

GFSNGP_500_temp_123.txt.gz
Temp
-14 -14 -13 -13 -13 -12 -12 -12 -11 -11 -11 -10 -10 -10 -10 -10 -9 -9 -8 -8 -8 -7 -8 -8 -8 -6 -6 -6 -6 -5 -6 -6 -6 -5 -5 -5 -5 -5 -5 -6 -6 -6 -5 -5
-14 -14 -14 -14 -13 -13 -12 -12 -11 -11 -11 -11 -10 -10 -10 -10 -9 -9 -9 -9 -9 -9 -8 -8 -8 -7 -7 -6 -6 -5 -6 -7 -6 -6 -5 -6 -6 -6 -6 -6 -6 -6 -6 -5
-14 -14 -14 -14 -13 -13 -13 -13 -12 -11 -12 -12 -11 -10 -10 -10 -10 -9 -10 -10 -9 -9 -9 -7 -7 -7 -7 -7 -7 -6 -6 -7 -6 -6 -6 -6 -6 -6 -6 -6 -6 -6 -6 -6
-14 -14 -14 -13 -13 -13 -13 -13 -13 -13 -12 -12 -11 -11 -11 -11 -10 -10 -10 -10 -9 -9 -9 -9 -9 -8 -7 -7 -7 -7 -6 -6 -6 -7 -5 -6 -6 -6 -5 -6 -6 -6 -6 -6
-14 -14 -13 -13 -14 -13 -13 -13 -13 -13 -13 -12 -12 -12 -11 -12 -11 -11 -11 -11 -10 -10 -9 -10 -9 -8 -8 -8 -8 -7 -7 -6 -7 -7 -6 -6 -6 -6 -6 -6 -6 -6 -6 -6
-14 -14 -14 -14 -14 -13 -14 -13 -13 -13 -13 -13 -12 -12 -12 -12 -12 -12 -11 -11 -10 -10 -10 -9 -9 -8 -9 -8 -8 -7 -7 -7 -7 -6 -6 -6 -6 -6 -5 -6 -6 -7 -6 -6
-15 -15 -14 -14 -14 -14 -14 -13 -14 -13 -13 -13 -13 -12 -12 -12 -12 -12 -11 -11 -11 -10 -10 -10 -10 -10 -10 -9 -8 -8 -8 -8 -7 -7 -6 -7 -6 -6 -6 -6 -6 -6 -6 -6
-15 -15 -15 -15 -15 -15 -15 -15 -14 -14 -14 -13 -12 -12 -12 -13 -12 -12 -12 -12 -12 -11 -10 -10 -11 -11 -10 -9 -9 -9 -9 -8 -8 -9 -8 -7 -8 -6 -7 -7 -6 -6 -6 -6
-16 -16 -15 -15 -15 -15 -15 -15 -14 -14 -14 -13 -13 -13 -13 -13 -13 -13 -12 -12 -11 -11 -11 -11 -11 -11 -10 -10 -9 -10 -10 -9 -9 -10 -9 -8 -8 -8 -7 -7 -7 -7 -7 -7
-16 -16 -16 -15 -15 -15 -15 -15 -15 -15 -14 -14 -14 -14 -14 -14 -13 -13 -12 -12 -11 -11 -11 -11 -11 -10 -10 -10 -10 -9 -9 -9 -9 -8 -8 -8 -8 -8 -7 -8 -8 -7 -7 -7
-16 -16 -16 -16 -15 -15 -15 -15 -15 -15 -15 -15 -14 -14 -14 -14 -13 -13 -12 -12 -12 -11 -11 -10 -11 -10 -10 -10 -10 -10 -10 -9 -9 -9 -8 -9 -8 -9 -9 -9 -8 -8 -8 -8
-16 -16 -16 -16 -16 -16 -16 -16 -15 -15 -15 -15 -15 -14 -13 -13 -13 -12 -12 -12 -12 -12 -12 -11 -11 -10 -10 -10 -9 -9 -9 -9 -9 -9 -9 -9 -9 -9 -10 -9 -9 -9 -9 -8
-17 -17 -17 -17 -16 -16 -16 -16 -15 -15 -15 -15 -15 -14 -14 -13 -13 -12 -12 -12 -12 -12 -12 -11 -11 -10 -10 -9 -9 -10 -10 -10 -10 -10 -10 -10 -10 -10 -10 -10 -9 -9 -10 -10
-17 -17 -17 -17 -17 -16 -16 -16 -16 -16 -15 -15 -15 -14 -14 -13 -14 -14 -13 -13 -12 -12 -11 -11 -11 -11 -10 -10 -10 -11 -11 -11 -11 -11 -11 -11 -11 -10 -10 -10 -11 -10 -10 -10
-17 -17 -17 -17 -17 -17 -16 -16 -16 -16 -15 -15 -15 -15 -14 -14 -14 -14 -13 -13 -13 -13 -12 -12 -12 -12 -12 -11 -11 -11 -11 -12 -12 -12 -12 -12 -12 -12 -12 -12 -12 -12 -12 -12
-16 -17 -17 -16 -16 -16 -16 -16 -16 -16 -15 -15 -15 -15 -14 -14 -14 -14 -14 -13 -13 -13 -13 -12 -12 -12 -12 -12 -12 -12 -12 -12 -12 -12 -13 -13 -13 -13 -13 -13 -13 -13 -13 -13
-16 -16 -16 -16 -16 -16 -16 -16 -16 -16 -15 -15 -15 -15 -14 -14 -14 -14 -14 -13 -13 -13 -13 -13 -13 -13 -13 -13 -13 -13 -13 -13 -13 -13 -13 -13 -13 -13 -14 -14 -14 -14 -14 -14
-15 -16 -16 -16 -16 -16 -16 -16 -15 -15 -15 -15 -15 -14 -14 -14 -14 -14 -14 -13 -13 -13 -13 -13 -13 -14 -14 -14 -14 -14 -13 -13 -14 -14 -14 -14 -14 -14 -14 -14 -14 -14 -14 -14
-15 -15 -15 -15 -15 -15 -15 -15 -15 -15 -15 -15 -15 -14 -14 -14 -14 -14 -14 -14 -14 -14 -14 -14 -14 -14 -14 -14 -14 -14 -14 -14 -14 -14 -14 -14 -14 -14 -14 -14 -14 -15 -15 -15
-14 -14 -14 -15 -15 -15 -15 -15 -15 -15 -15 -15 -15 -15 -15 -15 -15 -15 -15 -14 -14 -14 -14 -14 -14 -14 -14 -14 -14 -14 -14 -14 -14 -14 -14 -14 -15 -15 -15 -14 -15 -15 -15 -15
-14 -14 -14 -14 -14 -14 -14 -14 -14 -14 -14 -14 -14 -14 -14 -14 -14 -14 -14 -14 -14 -15 -15 -15 -15 -15 -14 -14 -14 -14 -14 -14 -14 -14 -14 -14 -14 -15 -15 -15 -15 -16 -16 -16
-14 -14 -14 -14 -14 -14 -14 -15 -15 -15 -14 -14 -14 -14 -14 -14 -14 -14 -14 -14 -15 -15 -15 -15 -15 -15 -14 -14 -14 -14 -14 -14 -14 -14 -15 -15 -15 -15 -15 -16 -16 -16 -16 -17
-14 -14 -14 -14 -15 -14 -14 -14 -14 -14 -14 -14 -14 -14 -14 -14 -14 -14 -14 -15 -15 -15 -15 -15 -15 -15 -15 -15 -14 -14 -14 -15 -15 -15 -16 -16 -16 -16 -16 -16 -16 -17 -17 -18
-14 -14 -14 -14 -14 -14 -14 -14 -14 -14 -14 -14 -14 -14 -14 -14 -14 -15 -15 -15 -15 -15 -15 -16 -16 -15 -15 -15 -15 -15 -15 -16 -16 -16 -16 -16 -16 -16 -17 -17 -18 -18 -18 -18
-14 -14 -14 -14 -15 -14 -14 -14 -14 -14 -14 -14 -14 -14 -14 -14 -15 -15 -16 -16 -16 -16 -16 -15 -16 -15 -16 -16 -16 -16 -16 -17 -17 -16 -16 -16 -17 -18 -18 -18 -19 -19 -19 -19
-14 -14 -14 -14 -14 -14 -14 -14 -14 -14 -15 -15 -15 -15 -15 -15 -15 -16 -16 -16 -16 -16 -16 -16 -15 -16 -16 -16 -16 -16 -17 -17 -17 -17 -17 -17 -18 -18 -19 -19 -19 -19 -20 -20
-14 -14 -14 -15 -15 -15 -15 -15 -15 -15 -15 -15 -15 -15 -16 -15 -15 -15 -15 -16 -16 -16 -16 -16 -16 -16 -17 -17 -17 -17 -17 -17 -17 -17 -17 -18 -19 -19 -19 -19 -20 -20 -20 -21